Weather History for Little Rock, AR

Change the Weather History Date:

Saturday, August 17, 2013

  Actual Average Record
Temperature  
Mean Temperature 75 °F 83 °F  
Max Temperature 84 °F 93 °F 105 °F (2000)
Min Temperature 66 °F 73 °F 55 °F (1992)
Degree Days  
Heating Degree Days 0 0  
Month to date heating degree days 0 0  
Since 1 June heating degree days 0 0  
Since 1 July heating degree days 0 0  
Cooling Degree Days 10 18  
Month to date cooling degree days 267 306  
Year to date cooling degree days 1464 1565  
Since 1 June cooling degree days 1203 1284  
Growing Degree Days 24 (Base 50)    
Moisture  
Dew Point 64 °F    
Average Humidity 70    
Maximum Humidity 84    
Minimum Humidity 55    
Precipitation  
Precipitation 0.00 in 0.08 in 2.02 in (1958)
Month to date precipitation 3.56 1.38  
Year to date precipitation 34.60 30.20  
Snow  
Snow 0.00 in 0.00 in - ()
Month to date snowfall 0.0 0.0  
Since 1 June snowfall 0.0 0.0  
Since 1 July snowfall 0.0 0.0  
Snow Depth 0.00 in    
Sea Level Pressure  
Sea Level Pressure 30.07 in    
Wind  
Wind Speed 7 mph (NNE)    
Max Wind Speed 13 mph    
Max Gust Speed 17 mph    
Visibility 10 miles    
Events      
T = Trace of Precipitation, MM = Missing Value Source: NWS Daily Summary

Daily Weather History Graph

Daily Weather History Graph

Search for Another Location

Airport:

Trip Planner

Search our weather history database for the weather conditions in past years. The results will help you decide how hot, cold, wet, or windy it might be!

Date:

Astronomy

Aug. 17, 2013 Rise Set
Actual Time 6:31 AM CDT 7:54 PM CDT
Civil Twilight 6:04 AM CDT 8:20 PM CDT
Nautical Twilight 5:32 AM CDT 8:52 PM CDT
Astronomical Twilight 4:59 AM CDT 9:25 PM CDT
Moon 5:06 PM CDT (8/17) 2:39 AM CDT (8/17)
Length of Visible Light 14h 16m
Length of Day
13h 23m
Waxing Gibbous, 84% of the Moon is Illuminated
Aug 17
Waxing Gibbous
Aug 20
Full
Aug 28
Last Quarter
Sep 5
New
Sep 12
First Quarter

Hourly Weather History & Observations

Time (CDT) Temp. Heat Index Dew Point Humidity Pressure Visibility Wind Dir Wind Speed Gust Speed Precip Events Conditions
12:46 AM 69.8 °F - 60.8 °F 73% 30.08 in 10.0 mi North 6.9 mph - N/A   Overcast
12:53 AM 70.0 °F - 60.1 °F 71% 30.08 in 10.0 mi North 8.1 mph - N/A   Mostly Cloudy
1:41 AM 69.8 °F - 60.8 °F 73% 30.07 in 10.0 mi North 8.1 mph - N/A   Overcast
1:53 AM 69.1 °F - 61.0 °F 75% 30.07 in 10.0 mi North 8.1 mph - N/A   Mostly Cloudy
2:53 AM 68.0 °F - 61.0 °F 78% 30.06 in 10.0 mi North 6.9 mph - N/A   Scattered Clouds
3:53 AM 66.9 °F - 61.0 °F 81% 30.06 in 10.0 mi North 6.9 mph - N/A   Mostly Cloudy
4:53 AM 66.9 °F - 61.0 °F 81% 30.06 in 10.0 mi NNW 6.9 mph - N/A   Overcast
5:53 AM 66.9 °F - 61.0 °F 81% 30.06 in 10.0 mi North 4.6 mph - N/A   Overcast
6:51 AM 68.0 °F - 60.8 °F 78% 30.07 in 10.0 mi NNW 5.8 mph - N/A   Overcast
6:53 AM 68.0 °F - 61.0 °F 78% 30.07 in 10.0 mi NNW 5.8 mph - N/A   Overcast
7:53 AM 68.0 °F - 61.0 °F 78% 30.08 in 10.0 mi North 8.1 mph - N/A   Overcast
8:53 AM 69.1 °F - 62.1 °F 78% 30.09 in 10.0 mi North 6.9 mph - N/A   Overcast
9:53 AM 70.0 °F - 63.0 °F 78% 30.10 in 10.0 mi North 6.9 mph - N/A   Overcast
10:53 AM 73.0 °F - 64.0 °F 73% 30.11 in 10.0 mi North 9.2 mph - N/A   Overcast
11:53 AM 75.0 °F - 66.0 °F 73% 30.11 in 10.0 mi NE 11.5 mph - N/A   Overcast
12:06 PM 73.4 °F - 64.4 °F 73% 30.10 in 10.0 mi NNE 9.2 mph - N/A   Overcast
12:53 PM 75.9 °F - 66.0 °F 71% 30.09 in 10.0 mi ENE 6.9 mph - N/A   Overcast
1:53 PM 78.1 °F - 66.9 °F 68% 30.08 in 10.0 mi Variable 4.6 mph - N/A   Overcast
2:08 PM 78.8 °F - 66.2 °F 65% 30.07 in 10.0 mi ENE 5.8 mph - N/A   Mostly Cloudy
2:53 PM 82.0 °F 83.8 °F 64.9 °F 56% 30.05 in 10.0 mi Variable 4.6 mph - N/A   Scattered Clouds
3:53 PM 82.9 °F 84.6 °F 64.9 °F 54% 30.04 in 10.0 mi NE 6.9 mph - N/A   Scattered Clouds
4:53 PM 82.9 °F 84.6 °F 64.9 °F 54% 30.03 in 10.0 mi East 5.8 mph - N/A   Scattered Clouds
5:53 PM 82.9 °F 84.6 °F 64.9 °F 54% 30.03 in 10.0 mi NE 6.9 mph - N/A   Scattered Clouds
6:53 PM 80.1 °F 81.9 °F 64.9 °F 60% 30.02 in 10.0 mi ENE 6.9 mph - N/A   Scattered Clouds
7:53 PM 78.1 °F - 66.9 °F 68% 30.03 in 10.0 mi NE 6.9 mph - N/A   Scattered Clouds
8:53 PM 73.9 °F - 66.9 °F 79% 30.04 in 10.0 mi NE 6.9 mph - N/A   Scattered Clouds
9:53 PM 72.0 °F - 66.0 °F 81% 30.06 in 10.0 mi ENE 6.9 mph - N/A   Partly Cloudy
10:53 PM 72.0 °F - 66.0 °F 81% 30.07 in 10.0 mi NE 6.9 mph - N/A   Scattered Clouds
11:53 PM 70.0 °F - 64.9 °F 84% 30.07 in 10.0 mi NE 5.8 mph - N/A   Partly Cloudy